Weather History for Bradford, PA

Change the Weather History Date:

Monday, January 21, 2013

  Actual Average Record
Temperature  
Mean Temperature 14 °F 21 °F  
Max Temperature 18 °F 29 °F 52 °F (1959)
Min Temperature 9 °F 14 °F -26 °F (1984)
Degree Days  
Heating Degree Days 52 38  
Month to date heating degree days 798  
Since 1 July heating degree days 3854  
Cooling Degree Days 0 0  
Month to date cooling degree days 0  
Year to date cooling degree days 0  
Moisture  
Dew Point 8 °F    
Average Humidity 71    
Maximum Humidity 81    
Minimum Humidity 59    
Precipitation  
Precipitation 0.00 in 0.10 in 2.45 in (1959)
Month to date precipitation 2.27  
Year to date precipitation 2.27  
Sea Level Pressure  
Sea Level Pressure 29.88 in    
Wind  
Wind Speed 7 mph (WSW)    
Max Wind Speed 13 mph    
Max Gust Speed 23 mph    
Visibility 5 miles    
Events Snow    
T = Trace of Precipitation, MM = Missing Value Source: NWS Daily Summary

Daily Weather History Graph

Daily Weather History Graph

Search for Another Location

Airport:

Trip Planner

Search our weather history database for the weather conditions in past years. The results will help you decide how hot, cold, wet, or windy it might be!

Date:

Astronomy

Jan. 21, 2013 Rise Set
Actual Time 7:36 AM EST 5:16 PM EST
Civil Twilight 7:05 AM EST 5:46 PM EST
Nautical Twilight 6:31 AM EST 6:20 PM EST
Astronomical Twilight 5:58 AM EST 6:53 PM EST
Moon 12:54 PM EST (1/21) 3:02 AM EST (1/21)
Length of Visible Light 10h 40m
Length of Day
9h 40m
Waxing Gibbous, 75% of the Moon is Illuminated
Jan 21
Waxing Gibbous
Jan 26
Full
Feb 3
Last Quarter
Feb 10
New
Feb 17
First Quarter

Hourly Weather History & Observations

Time (EST) Temp. Windchill Dew Point Humidity Pressure Visibility Wind Dir Wind Speed Gust Speed Precip Events Conditions
12:05 AM 17.1 °F 8.7 °F 10.9 °F 77% 29.95 in 2.5 mi West 5.8 mph - 0.00 in Snow Light Snow
12:17 AM 18.0 °F 7.7 °F 10.9 °F 74% 29.95 in 3.0 mi West 8.1 mph - 0.00 in Snow Light Snow
12:53 AM 17.1 °F 6.6 °F 10.9 °F 77% 30.02 in 3.0 mi West 8.1 mph - 0.00 in Snow Light Snow
1:35 AM 17.1 °F 6.6 °F 10.9 °F 77% 29.94 in 2.5 mi West 8.1 mph - 0.00 in Snow Light Snow
1:43 AM 17.1 °F 6.6 °F 10.9 °F 77% 29.94 in 5.0 mi West 8.1 mph - 0.00 in Snow Light Snow
1:53 AM 17.1 °F 5.0 °F 10.0 °F 74% 30.03 in 7.0 mi West 10.4 mph - 0.00 in Snow Light Snow
2:23 AM 17.1 °F 5.8 °F 10.0 °F 74% 29.94 in 4.0 mi WNW 9.2 mph - 0.00 in Snow Light Snow
2:43 AM 17.1 °F 5.0 °F 9.0 °F 71% 29.94 in 9.0 mi WNW 10.4 mph - 0.00 in   Overcast
2:53 AM 17.1 °F 7.6 °F 9.0 °F 71% 30.02 in 10.0 mi NW 6.9 mph - 0.00 in   Overcast
3:53 AM 17.1 °F 8.7 °F 8.1 °F 68% 30.02 in 10.0 mi Variable 5.8 mph - N/A   Overcast
4:09 AM 17.1 °F 8.7 °F 8.1 °F 68% 29.92 in 9.0 mi Variable 5.8 mph - 0.00 in Snow Light Snow
4:33 AM 17.1 °F 11.7 °F 9.0 °F 71% 29.91 in 8.0 mi West 3.5 mph - 0.00 in   Overcast
4:53 AM 17.1 °F 10.0 °F 8.1 °F 68% 30.00 in 10.0 mi Variable 4.6 mph - 0.00 in   Overcast
5:14 AM 17.1 °F 11.7 °F 9.0 °F 71% 29.90 in 7.0 mi West 3.5 mph - 0.00 in Snow Light Snow
5:53 AM 16.0 °F 8.8 °F 9.0 °F 74% 30.00 in 2.5 mi WSW 4.6 mph - 0.00 in Snow Light Snow
6:48 AM 15.8 °F 7.2 °F 10.4 °F 79% 29.89 in 3.0 mi SW 5.8 mph - 0.00 in Snow Light Snow
7:38 AM 16.0 °F 10.4 °F 10.9 °F 81% 29.88 in 2.5 mi WSW 3.5 mph - 0.00 in Snow Light Snow
7:53 AM 16.0 °F 10.4 °F 10.9 °F 81% 29.98 in 1.2 mi SW 3.5 mph - 0.00 in Snow Light Snow
8:24 AM 17.1 °F 10.0 °F 10.9 °F 77% 29.87 in 2.5 mi SW 4.6 mph - 0.00 in Snow Light Snow
8:50 AM 15.8 °F 7.2 °F 8.6 °F 73% 29.87 in 3.0 mi SW 5.8 mph - 0.00 in Snow Light Snow
8:51 AM 16.0 °F 8.8 °F 9.0 °F 74% 29.97 in 3.0 mi SW 4.6 mph - 0.00 in Snow Light Snow
8:58 AM 16.0 °F 6.3 °F 10.0 °F 77% 29.87 in 3.0 mi WSW 6.9 mph - 0.00 in Snow Light Snow
9:20 AM 16.0 °F 10.4 °F 10.0 °F 77% 29.87 in 2.5 mi Variable 3.5 mph - 0.00 in Snow Light Snow
9:31 AM 17.1 °F 10.0 °F 9.0 °F 71% 29.87 in 3.0 mi Variable 4.6 mph - 0.00 in Snow Light Snow
9:39 AM 16.0 °F 8.8 °F 9.0 °F 74% 29.87 in 2.5 mi Variable 4.6 mph - 0.00 in Snow Light Snow
9:53 AM 17.1 °F 8.7 °F 9.0 °F 71% 29.97 in 3.0 mi WSW 5.8 mph - 0.00 in Snow Light Snow
10:12 AM 17.1 °F 8.7 °F 9.0 °F 71% 29.87 in 2.5 mi Variable 5.8 mph - 0.00 in Snow Light Snow
10:25 AM 17.1 °F 8.7 °F 9.0 °F 71% 29.86 in 3.0 mi Variable 5.8 mph - 0.00 in Snow Light Snow
10:33 AM 17.1 °F 7.6 °F 8.1 °F 68% 29.86 in 2.0 mi Variable 6.9 mph - 0.00 in Snow Light Snow
10:46 AM 17.1 °F 7.6 °F 9.0 °F 71% 29.86 in 2.0 mi SW 6.9 mph - 0.00 in Snow Light Snow
10:53 AM 17.1 °F 7.6 °F 9.0 °F 71% 29.94 in 1.8 mi WSW 6.9 mph - 0.00 in Snow Light Snow
11:10 AM 17.1 °F 7.6 °F 10.0 °F 74% 29.84 in 2.0 mi SW 6.9 mph - 0.00 in Snow Light Snow
11:17 AM 17.1 °F 8.7 °F 9.0 °F 71% 29.83 in 1.8 mi SW 5.8 mph - 0.00 in Snow Light Snow
11:24 AM 17.1 °F 10.0 °F 10.0 °F 74% 29.83 in 2.5 mi Variable 4.6 mph - 0.00 in Snow Light Snow
11:33 AM 17.1 °F 6.6 °F 9.0 °F 71% 29.82 in 3.0 mi SW 8.1 mph - 0.00 in Snow Light Snow
11:53 AM 18.0 °F 8.7 °F 8.1 °F 65% 29.90 in 4.0 mi Variable 6.9 mph - 0.00 in Snow Light Snow
12:13 PM 17.1 °F 6.6 °F 9.0 °F 71% 29.80 in 2.0 mi WSW 8.1 mph - 0.00 in Snow Light Snow
12:20 PM 17.1 °F 8.7 °F 8.1 °F 68% 29.79 in 1.5 mi SW 5.8 mph - 0.00 in Snow Light Snow
12:45 PM 17.1 °F 6.6 °F 9.0 °F 71% 29.78 in 2.0 mi West 8.1 mph - 0.00 in Snow Light Snow
12:53 PM 17.1 °F 7.6 °F 9.0 °F 71% 29.87 in 2.0 mi Variable 6.9 mph - 0.00 in Snow Light Snow
1:13 PM 17.1 °F 7.6 °F 10.0 °F 74% 29.77 in 1.0 mi Variable 6.9 mph - 0.00 in Snow Light Snow
1:21 PM 16.0 °F 6.3 °F 10.0 °F 77% 29.77 in 0.5 mi WSW 6.9 mph - 0.00 in Snow Snow
1:41 PM 16.0 °F 6.3 °F 10.9 °F 81% 29.76 in 0.5 mi WSW 6.9 mph - 0.00 in Snow Snow
1:53 PM 16.0 °F 4.4 °F 9.0 °F 74% 29.86 in 1.0 mi SW 9.2 mph 17.3 mph 0.00 in Snow Light Snow
1:58 PM 16.0 °F 2.9 °F 9.0 °F 74% 29.76 in 2.0 mi SW 11.5 mph 18.4 mph 0.00 in Snow Light Snow
2:05 PM 16.0 °F 4.4 °F 8.1 °F 71% 29.76 in 3.0 mi WSW 9.2 mph 18.4 mph 0.00 in Snow Light Snow
2:53 PM 17.1 °F 5.8 °F 6.1 °F 62% 29.85 in 10.0 mi WSW 9.2 mph - 0.00 in   Overcast
3:53 PM 17.1 °F 8.7 °F 6.1 °F 62% 29.86 in 5.0 mi West 5.8 mph 20.7 mph 0.00 in Snow Light Snow
4:38 PM 16.0 °F 6.3 °F 7.0 °F 68% 29.77 in 3.0 mi WNW 6.9 mph - 0.00 in Snow Light Snow
4:53 PM 16.0 °F 4.4 °F 6.1 °F 65% 29.87 in 10.0 mi West 9.2 mph - 0.00 in   Mostly Cloudy
5:14 PM 15.1 °F 5.2 °F 5.0 °F 64% 29.78 in 10.0 mi West 6.9 mph - N/A   Partly Cloudy
5:53 PM 15.1 °F 6.4 °F 3.9 °F 61% 29.88 in 9.0 mi WSW 5.8 mph - 0.00 in   Mostly Cloudy
6:53 PM 14.0 °F -0.2 °F 3.0 °F 62% 29.90 in 10.0 mi West 12.7 mph 19.6 mph N/A   Scattered Clouds
7:53 PM 12.9 °F 1.6 °F 1.9 °F 62% 29.90 in 10.0 mi West 8.1 mph - N/A   Clear
8:09 PM 12.9 °F -0.2 °F 3.0 °F 65% 29.79 in 10.0 mi West 10.4 mph 18.4 mph N/A   Mostly Cloudy
8:32 PM 12.9 °F 0.7 °F 1.0 °F 59% 29.79 in 10.0 mi West 9.2 mph 19.6 mph N/A   Scattered Clouds
8:53 PM 12.0 °F -2.0 °F 1.0 °F 61% 29.90 in 10.0 mi West 11.5 mph - N/A   Clear
9:13 PM 12.0 °F -0.4 °F 1.0 °F 61% 29.80 in 10.0 mi WSW 9.2 mph - N/A   Mostly Cloudy
9:43 PM 10.9 °F -3.4 °F 1.0 °F 64% 29.80 in 6.0 mi West 11.5 mph 23.0 mph N/A   Haze
9:53 PM 10.9 °F 0.2 °F 1.0 °F 64% 29.91 in 6.0 mi West 6.9 mph 17.3 mph N/A   Haze
10:11 PM 10.9 °F -2.6 °F -0.0 °F 61% 29.80 in 6.0 mi West 10.4 mph 21.9 mph 0.00 in   Overcast
10:53 PM 9.0 °F -6.6 °F 1.0 °F 70% 29.91 in 5.0 mi West 12.7 mph 20.7 mph 0.00 in   Haze
11:17 PM 9.0 °F -6.6 °F 1.9 °F 73% 29.80 in 1.8 mi West 12.7 mph - 0.00 in Snow Light Snow
11:30 PM 9.0 °F -2.2 °F 1.9 °F 73% 29.80 in 3.0 mi Variable 6.9 mph - 0.00 in Snow Light Snow
11:53 PM 9.0 °F -3.2 °F 1.9 °F 73% 29.90 in 3.0 mi West 8.1 mph 19.6 mph 0.00 in Snow Light Snow